This demonstration page uses our WeatherBlox Daily Observations layout. Learn more.

Left ArrowRight Arrow

39.01783, -85.05884

Hourly Observations for October 22, 2021

Temp ( °F °C ) Dew Point ( °F °C ) Humidity (%) Winds ( mph kmh ) Pressure ( in mb ) Visibility ( mi km ) Precip ( " mm )
12:52 am 00:52 Mostly Clear 50 10 43 6.1 77 77 WNW 8 13 30.01 1016 10 16 N/A
1:52 am 01:52 Clear 48 8.9 42 5.6 80 80 WSW 5 7 30.02 1017 10 16 N/A
2:52 am 02:52 Clear 47 8.3 43 6.1 86 86 W 3 6 30.01 1016 10 16 N/A
3:40 am 03:40 Mostly Cloudy 47 8.3 43 6.1 86 86 SW 5 7 30.05 1017 10 16 N/A
3:52 am 03:52 Cloudy 48 8.9 43 6.1 83 83 WSW 5 7 30.01 1016 10 16 N/A
4:30 am 04:30 Cloudy 48 8.9 44 6.7 86 86 WSW 6 9 30.03 1017 10 16 N/A
4:52 am 04:52 Cloudy 49 9.4 44 6.7 83 83 W 5 7 30.00 1016 10 16 N/A
5:52 am 05:52 Cloudy 50 10 45 7.2 83 83 NNW 7 11 30.01 1016 10 16 N/A
6:52 am 06:52 Cloudy 50 10 45 7.2 83 83 WNW 6 9 30.02 1017 10 16 N/A
7:52 am 07:52 Cloudy 50 10 45 7.2 83 83 WSW 5 7 30.04 1017 10 16 N/A
8:15 am 08:15 Cloudy 50 10 45 7.2 83 83 WSW 5 7 30.06 1018 8 13 N/A
8:52 am 08:52 Cloudy with Mist and Fog 50 10 46 7.8 86 86 SW 5 7 30.06 1018 6 10 N/A
9:27 am 09:27 Cloudy with Mist and Fog 50 10 47 8.3 89 89 N N/A 30.08 1019 6 10 N/A
9:52 am 09:52 Cloudy 50 10 47 8.3 89 89 SW 5 7 30.07 1018 7 11 N/A
10:12 am 10:12 Cloudy with Mist and Fog 50 10 47 8.3 89 89 S 7 11 30.08 1019 3 4 N/A
10:52 am 10:52 Cloudy with Mist and Fog 50 10 47 8.3 89 89 SSW 6 9 30.07 1018 3 4 0.00 0.00
11:52 am 11:52 Cloudy with Mist and Fog 51 10.6 48 8.9 89 89 SW 6 9 30.06 1018 3 4 N/A
11:59 am 11:59 Cloudy with Mist and Fog 51 10.6 47 8.3 86 86 SW 6 9 30.08 1019 5 8 N/A
12:52 pm 12:52 Cloudy 52 11.1 48 8.9 86 86 SW 3 6 30.05 1018 7 11 N/A
1:21 pm 13:21 Cloudy 52 11.1 48 8.9 86 86 SSE 3 6 30.06 1018 8 13 N/A
1:52 pm 13:52 Cloudy 53 11.7 48 8.9 83 83 SSW 5 7 30.03 1017 10 16 N/A
2:52 pm 14:52 Cloudy 54 12.2 47 8.3 77 77 SW 5 7 30.02 1017 10 16 N/A
3:14 pm 15:14 Cloudy with Drizzle 53 11.7 47 8.3 80 80 SW 8 13 30.02 1017 5 8 0.00 0.00
3:16 pm 15:16 Cloudy with Drizzle 53 11.7 48 8.9 83 83 SW 8 13 30.02 1017 2 3 0.00 0.00
3:37 pm 15:37 Cloudy with Drizzle 52 11.1 49 9.4 89 89 WSW 6 9 30.03 1017 2 3 0.00 0.00
3:52 pm 15:52 Cloudy with Drizzle 52 11.1 49 9.4 89 89 SW 7 11 30.02 1017 4 6 0.01 0.25
4:05 pm 16:05 Cloudy with Drizzle 52 11.1 49 9.4 89 89 SW 6 9 30.03 1017 3 4 0.00 0.00
4:17 pm 16:17 Cloudy with Drizzle 52 11.1 49 9.4 89 89 SW 6 9 30.03 1017 2 3 0.00 0.00
4:52 pm 16:52 Cloudy with Mist and Fog 52 11.1 49 9.4 89 89 SW 6 9 30.02 1017 2 3 0.00 0.00
5:24 pm 17:24 Cloudy with Mist and Fog 52 11.1 49 9.4 89 89 SSW 5 7 30.04 1017 2 3 N/A
5:52 pm 17:52 Cloudy with Mist and Fog 52 11.1 49 9.4 89 89 SSW 3 6 30.02 1017 3 5 0.01 0.25
6:24 pm 18:24 Cloudy with Mist and Fog 52 11.1 49 9.4 89 89 SSW 6 9 30.04 1017 2 3 N/A
6:45 pm 18:45 Cloudy with Drizzle 52 11.1 49 9.4 89 89 SSW 6 9 30.03 1017 2 2 0.00 0.00
6:52 pm 18:52 Cloudy with Drizzle 52 11.1 49 9.4 89 89 SSW 7 11 30.02 1017 2 3 0.00 0.00
7:11 pm 19:11 Cloudy with Drizzle 52 11.1 49 9.4 89 89 SW 8 13 30.03 1017 2 3 0.01 0.25
7:38 pm 19:38 Cloudy with Drizzle 52 11.1 49 9.4 89 89 SW 7 11 30.04 1017 2 3 0.01 0.25
7:52 pm 19:52 Cloudy with Mist and Fog 52 11.1 49 9.4 89 89 SW 3 6 30.02 1017 3 5 0.01 0.25
8:52 pm 20:52 Cloudy with Mist and Fog 52 11.1 49 9.4 89 89 SSW 3 6 30.02 1017 5 8 0.01 0.25
9:29 pm 21:29 Cloudy with Mist and Fog 52 11.1 49 9.4 89 89 SSW 6 9 30.04 1017 3 4 N/A
9:46 pm 21:46 Cloudy with Mist and Fog 52 11 48 9 88 88 SW 6 9 30.03 1017 3 4 N/A
9:52 pm 21:52 Cloudy with Mist and Fog 52 11.1 49 9.4 89 89 SW 5 7 30.02 1017 3 4 N/A
10:52 pm 22:52 Mostly Cloudy with Mist and Fog 52 11.1 49 9.4 89 89 WSW 6 9 30.02 1017 3 4 N/A
11:23 pm 23:23 Cloudy with Mist and Fog 52 11.1 49 9.4 89 89 WSW 7 11 30.03 1017 3 4 N/A
11:52 pm 23:52 Cloudy with Light Rain 51 10.6 48 8.9 89 89 W 8 13 30.01 1016 3 4 0.00 0.00

Powered by AerisWeather